Location: Unspecified
(0.0000°N, 0.0000°E)
Time: 17:02:58
(UTC+00:00)

COSMOS 2251 DEB - Visible Passes

Search period start: 15 February 2026 00:00
Search period end: 25 February 2026 00:00
Orbit: 722 x 993 km, 74.0° (Epoch: 7 July)

Date Brightness Start Highest point End Pass type
(mag) Time Alt. Az. Time Alt. Az. Time Alt. Az.
20 Feb?21:02:46S21:02:46S20:50:18NWvisible
21 Feb ? 18:53:57 10° NE 18:56:35 14° ENE 18:57:52 13° E visible
21 Feb ? 20:35:23 10° NW 20:39:46 30° WSW 20:44:22 10° SSW visible
22 Feb ? 18:38:24 10° NE 18:40:19 12° ENE 18:42:17 10° E visible
22 Feb ? 20:18:55 10° NW 20:23:30 35° WSW 20:28:18 10° SSW visible
23 Feb ? 20:02:29 10° NNW 20:07:13 40° WSW 20:12:13 10° S visible
24 Feb ? 19:46:05 10° NNW 19:50:57 47° WSW 19:56:05 10° S visible
